This is the latest recevied weather packets stored in our database for station/object KY4EF. If no packets are shown the sender has not sent any weather packets the latest 10 day(s).
| Time | Temp. | Humidity | Pressure | Rain* | Wind** | Luminosity | Snow |
|---|---|---|---|---|---|---|---|
| 1777917779 | 28.89° C | 33% | 1013.9 hPa | 0 mm | - | 716 W/m² | - |
| 1777917476 | 27.78° C | 33% | 1014 hPa | 0 mm | - | 684 W/m² | - |
| 1777917173 | 26.67° C | 36% | 1013.8 hPa | 0 mm | - | 747 W/m² | - |
| 1777916871 | 26.67° C | 37% | 1014.2 hPa | 0 mm | - | 447 W/m² | - |
| 1777916569 | 26.67° C | 35% | 1014 hPa | 0 mm | - | 636 W/m² | - |
| 1777916265 | 26.11° C | 38% | 1014.1 hPa | 0 mm | - | 724 W/m² | - |
| 1777915962 | 26.11° C | 36% | 1014.4 hPa | 0 mm | - | 729 W/m² | - |
| 1777915659 | 25.56° C | 37% | 1014.4 hPa | 0 mm | - | 753 W/m² | - |
| 1777915355 | 24.44° C | 40% | 1014.5 hPa | 0 mm | - | 743 W/m² | - |
| 1777915051 | 23.89° C | 38% | 1014.5 hPa | 0 mm | - | 738 W/m² | - |
| 1777914748 | 23.33° C | 39% | 1014.6 hPa | 0 mm | - | 742 W/m² | - |
| 1777914445 | 23.33° C | 41% | 1014.7 hPa | 0 mm | - | 736 W/m² | - |
| 1777914143 | 23.89° C | 40% | 1014.9 hPa | 0 mm | - | 734 W/m² | - |
| 1777913839 | 25.56° C | 38% | 1014.8 hPa | 0 mm | - | 626 W/m² | - |
| 1777913535 | 23.89° C | 40% | 1015.1 hPa | 0 mm | - | 719 W/m² | - |
| 1777913232 | 23.89° C | 38% | 1015.1 hPa | 0 mm | - | 726 W/m² | - |
| 1777912929 | 23.89° C | 39% | 1015.3 hPa | 0 mm | - | 711 W/m² | - |
| 1777912625 | 23.89° C | 38% | 1015.1 hPa | 0 mm | - | 725 W/m² | - |
| 1777912321 | 24.44° C | 40% | 1015.3 hPa | 0 mm | - | 696 W/m² | - |
| 1777912017 | 25° C | 38% | 1015.1 hPa | 0 mm | - | 689 W/m² | - |
| 1777911713 | 24.44° C | 38% | 1015.5 hPa | 0 mm | - | 697 W/m² | - |
| 1777911410 | 22.78° C | 40% | 1015.6 hPa | 0 mm | - | 695 W/m² | - |
| 1777911107 | 22.78° C | 40% | 1015.7 hPa | 0 mm | - | 583 W/m² | - |
| 1777910805 | 23.89° C | 42% | 1015.8 hPa | 0 mm | - | 600 W/m² | - |
| 1777910501 | 23.89° C | 40% | 1015.9 hPa | 0 mm | - | 678 W/m² | - |
* Rain latest hour (hover to see other rain measurements)
** Current wind speed in m/s (hover to see current wind gust speed)